When you browse on this site, cookies collect data to enhance your experience and personalize the content and advertising you see.
Visit our Privacy Policy to learn more. By continuing to use the site, you agree to this use of cookies and data.
  • en Suisse
  • Liste des pays
  • À 7 jours
  • Température de l'eau
  • Carte satellitaire
  • Carte météo
  • Widgets météo
  • user-avatar
    Se connecter

    Météo par heure à Playuts'

    Ce jour, 17 Juillet, Mercredi

    Heure Température Précipitation Vent Pression Humidité
    00:00 +18°C° 0 mm 1 m/s 724 mmHg 82%
    01:00 +16°C° 0.1 mm 1 m/s 723 mmHg 88%
    02:00 +16°C° 1 mm 2 m/s 723 mmHg 94%
    03:00 +16°C° 0.2 mm 1 m/s 723 mmHg 98%
    04:00 +15°C° 0 mm 2 m/s 723 mmHg 100%
    05:00 +15°C° 0 mm 1 m/s 723 mmHg 100%
    06:00 +14°C° 0 mm 0 m/s 723 mmHg 100%
    07:00 +16°C° 0 mm 1 m/s 723 mmHg 100%
    08:00 +16°C° 0 mm 1 m/s 723 mmHg 100%
    09:00 +18°C° 0 mm 1 m/s 724 mmHg 98%
    10:00 +19°C° 0 mm 1 m/s 724 mmHg 90%
    11:00 +20°C° 0 mm 3 m/s 724 mmHg 79%
    12:00 +21°C° 0 mm 4 m/s 724 mmHg 74%
    13:00 +22°C° 0 mm 4 m/s 724 mmHg 71%
    14:00 +22°C° 0 mm 5 m/s 724 mmHg 71%
    15:00 +22°C° 0 mm 5 m/s 724 mmHg 72%
    16:00 +22°C° 0 mm 4 m/s 724 mmHg 73%
    17:00 +20°C° 1.2 mm 6 m/s 724 mmHg 89%
    18:00 +21°C° 0.4 mm 5 m/s 724 mmHg 81%
    19:00 +21°C° 0 mm 4 m/s 723 mmHg 81%
    20:00 +20°C° 0 mm 2 m/s 723 mmHg 88%
    21:00 +19°C° 0 mm 2 m/s 724 mmHg 89%
    22:00 +19°C° 0 mm 1 m/s 724 mmHg 96%
    23:00 +18°C° 0 mm 1 m/s 724 mmHg 98%

    Demain, 18 Juillet, Jeudi

    Heure Température Précipitation Vent Pression Humidité
    00:00 +18°C° 0 mm 1 m/s 724 mmHg 98%
    01:00 +16°C° 0 mm 1 m/s 724 mmHg 97%
    02:00 +16°C° 0 mm 1 m/s 724 mmHg 97%
    03:00 +15°C° 0 mm 1 m/s 724 mmHg 98%
    04:00 +14°C° 0 mm 1 m/s 724 mmHg 99%
    05:00 +14°C° 0 mm 1 m/s 724 mmHg 99%
    06:00 +14°C° 0 mm 1 m/s 724 mmHg 100%
    07:00 +15°C° 0 mm 1 m/s 725 mmHg 100%
    08:00 +16°C° 0 mm 1 m/s 725 mmHg 99%
    09:00 +17°C° 0 mm 0 m/s 725 mmHg 97%
    10:00 +20°C° 0 mm 1 m/s 726 mmHg 85%
    11:00 +20°C° 0 mm 2 m/s 726 mmHg 77%
    12:00 +21°C° 0 mm 3 m/s 726 mmHg 77%
    13:00 +23°C° 0 mm 2 m/s 726 mmHg 78%
    14:00 +24°C° 0 mm 3 m/s 725 mmHg 78%
    15:00 +24°C° 0 mm 3 m/s 726 mmHg 76%
    16:00 +24°C° 0 mm 3 m/s 725 mmHg 73%
    17:00 +24°C° 0 mm 3 m/s 725 mmHg 66%
    18:00 +24°C° 0 mm 2 m/s 725 mmHg 65%
    19:00 +24°C° 0 mm 2 m/s 725 mmHg 70%
    20:00 +23°C° 0 mm 1 m/s 726 mmHg 81%
    21:00 +22°C° 0 mm 1 m/s 726 mmHg 83%
    22:00 +19°C° 0 mm 2 m/s 726 mmHg 94%
    23:00 +19°C° 0 mm 2 m/s 726 mmHg 95%

    Après-demain, 19 Juillet, Vendredi

    Heure Température Précipitation Vent Pression Humidité
    00:00 +18°C° 0 mm 2 m/s 726 mmHg 93%
    01:00 +18°C° 0 mm 2 m/s 726 mmHg 92%
    02:00 +17°C° 0 mm 2 m/s 726 mmHg 92%
    03:00 +17°C° 0 mm 2 m/s 726 mmHg 91%
    04:00 +17°C° 0 mm 2 m/s 726 mmHg 92%
    05:00 +16°C° 0 mm 2 m/s 726 mmHg 93%
    06:00 +17°C° 0 mm 2 m/s 726 mmHg 93%
    07:00 +19°C° 0 mm 1 m/s 727 mmHg 93%
    08:00 +20°C° 0 mm 2 m/s 727 mmHg 90%
    09:00 +21°C° 0 mm 2 m/s 727 mmHg 88%
    10:00 +23°C° 0 mm 2 m/s 728 mmHg 84%
    11:00 +24°C° 0 mm 1 m/s 728 mmHg 80%
    12:00 +24°C° 0.2 mm 3 m/s 727 mmHg 83%
    13:00 +24°C° 0.7 mm 3 m/s 727 mmHg 82%
    14:00 +25°C° 0.1 mm 1 m/s 726 mmHg 76%

    20 Juillet, Samedi

    Heure Température Précipitation Vent Pression Humidité

    21 Juillet, Dimanche

    Heure Température Précipitation Vent Pression Humidité

    22 Juillet, Lundi

    Heure Température Précipitation Vent Pression Humidité
    Voir plus